649  
ASUS42 KMHX 092225  
RWRMHX  
WEATHER ROUNDUP FOR EASTERN NORTH CAROLINA  
NATIONAL WEATHER SERVICE NEWPORT/MOREHEAD CITY NC  
500 PM EST TUE FEB 09 2016  
 
NOTE: "FAIR" INDICATES FEW OR NO CLOUDS BELOW 12,000 FEET  
WITH NO SIGNIFICANT WEATHER AND/OR S TO VISIBILITY
 
 
NCZ015>017-031-032-045>047-102-103-092300-  
NORTH COAST  
 
CITY SKY/WX TMP DP RH WIND PRES REMARKS
 
EDENTON PTCLDY 42 34 74 W8 29.66R  
ELIZABETH CITY CLOUDY 42 33 70 SW13 29.63R  
KITTY HAWK CLOUDY 44 31 60 W10G18 29.63R  
MANTEO CLOUDY 43 33 68 W10 29.64R  
 

 
 
NCZ045>047-081-094-103-104-092300-  
CENTRAL COAST  
 
CITY SKY/WX TMP DP RH WIND PRES REMARKS
 
FRISCO CLOUDY 46 35 65 W9G16 29.65R  
SWANQUARTER N/A 46 N/A N/A NW2G18 29.65R  
 

 
 
NCZ095-097-098-100-101-092300-  
SOUTHERN COAST  
 
CITY SKY/WX TMP DP RH WIND PRES REMARKS
 
BEAUFORT PTCLDY 46 29 51 W14 29.69R  
CEDAR ISLAND N/A 45 N/A N/A SW17 29.71S  
JACKSONVILLE CLOUDY 44 24 45 W10G21 29.70R  
PINEY ISLAND PTCLDY N/A N/A N/A W17G26 29.67R  
WILMINGTON CLOUDY 45 25 45 W18G25 29.73R  
 

 
 
NCZ011>013-027>030-043-044-078>080-089-090>093-098-092300-  
COASTAL PLAIN  
 
CITY SKY/WX TMP DP RH WIND PRES REMARKS
 
AHOSKIE CLOUDY 41 29 61 CALM 29.65R  
CLINTON PTCLDY 42 25 50 W8G16 29.72R  
ELIZABETHTOWN CLOUDY 42 25 51 SW8G20 29.74R  
GOLDSBORO CLOUDY 43 21 42 W15G25 29.67R  
GREENVILLE CLOUDY 43 27 52 W7 29.71R  
HAVELOCK MOCLDY 45 26 47 W15G21 29.69R  
KENANSVILLE CLOUDY 42 23 47 SW10G16 29.71R  
KINSTON PTCLDY 43 25 49 W8G16 29.69R  
NEW BERN MOCLDY 44 24 45 W10G18 29.69R  
RICHLANDS CLOUDY 43 23 45 SW12G20 29.71R  
ROCKY MOUNT CLOUDY 41 25 53 W8G20 29.68R  
WASHINGTON CLOUDY 43 25 49 W16G22 29.67R  
WHITEVILLE CLOUDY 42 24 48 W10G18 29.75R  
 

 
 
AMZ130-135-150-152-154-156-158-170-250-252-270-ANZ085-086-088-633-658-670-092300-  
MARINE OBSERVATIONS  
 
STATION/POSITION TIME TEMP WIND PRES WAVE SWELL
 
AIR SEA DIR/SP/G HT/PER HT/PER  
(UTC) (F) (DEG/KT/KT) (MB) (FT/S) (FT/S)  
CHESAPEAKE LIGHT 2200 44 280/ 14/ 16 1002.8  
64 E VA BEACH 2150 47 50 240/ 16/ 21 1001.7 10/15 8/15  
DUCK 2200 43 240/ 18/ 22 1002.8  
2 E DUCK 2211 45 N/A 7/14 7/14  
OREGON INLET 2200 45 45 270/ 9/ 13 1003.4  
13E OREGON INLT 2200 47 N/A 9/14 8/14  
HATTERAS CG 2200 46 52 250/ 17/ 21 1003.6  
DIAMOND BUOY 2150 50 74 270/ 23/ 31 1003.3 10/15 8/15  
CAPE LOOKOUT NOT AVBL  
BEAUFORT LAB 2200 46 47 260/ 6/ 13 1004.2  
30 SE NEW RVR IN 2208 48 59 1005.2  
30 SE NEW RVR IN 2125 60 N/A 9/ 8 3/14  
27 SE WRIGHTSVLE 2108 47 60 270/ 23/ 31 1004.7  
5 SE WRIGHTSVLE NOT AVBL  
225 S CAPE HAT 2150 58 69 270/ 31/ 39 N/A 18/10 16/10  
41 SE CHARLESTON 2150 48 65 260/ 25/ 33 1008.7 9/ 7 2/15  
 

 
 
 
CLICK HERE TO GO TO PREVIOUS BULLETINS.

The Nexlab NC Page Main Text Page